Regional Weather Roundup
Issued by NWS Mt. Holly, NJ

Home | Current Version | Previous Version | Text Only | Print | Product List | Glossary On
Versions: 1 2 3 4 5 6 7 8 9 10 11 12 13 14 15 16 17 18 19 20 21 22 23 24 25 26 27 28 29 30 31 32 33 34 35 36 37 38 39 40 41 42 43 44 45 46 47 48 49 50
000
ASUS41 KPHI 291712
RWRPHI

REGIONAL WEATHER ROUNDUP
NATIONAL WEATHER SERVICE MOUNT HOLLY NJ
100 PM EDT FRI APR 29 2016

NOTE:  "FAIR" INDICATES FEW OR NO CLOUDS BELOW 12,000 FEET WITH NO
SIGNIFICANT WEATHER AND/OR OBSTRUCTIONS TO VISIBILITY.

 * = STATION DOES NOT REPORT PRECIPITATION (E.G. RAIN, SNOW, ETC.)
        OR FOG.

NJZ015>026-291800-
SOUTHERN NEW JERSEY

CITY           SKY/WX    TMP DP  RH WIND       PRES   REMARKS
POMONA         CLOUDY    51  43  74 NE9       30.06F
WILDWOOD*      CLOUDY   N/A N/A N/A NE9G22    30.04F
MILLVILLE      CLOUDY    51  45  79 E9        30.05F
WRIGHTSTOWN    CLOUDY    51  38  63 NE10      30.06F
MOUNT HOLLY    CLOUDY    51  38  60 E8        30.08F
TRENTON        CLOUDY    52  37  56 E12       30.08F

$$
NJZ001>014-291800-
NORTHERN NEW JERSEY

CITY           SKY/WX    TMP DP  RH WIND       PRES   REMARKS
SUSSEX         CLOUDY    53  33  46 SE7       30.09F
ANDOVER*         N/A     53  30  41 VRB5      30.08F
MORRISTOWN     CLOUDY    55  25  30 SE13G18   30.10F
NEWARK         CLOUDY    57  25  29 E14G20    30.10F
TETERBORO      CLOUDY    54  33  45 E8G17     30.09F
CALDWELL       CLOUDY    54  29  38 SE8       30.10F
SOMERVILLE     CLOUDY    55  34  45 SE6       30.08F
ALLAIRE*       CLOUDY    49  39  68 E15G21    30.10F
TOMS RIVER*    CLOUDY    48  39  71 E8        30.09F

$$
PAZ043-044-047-054-055-060>062-066>071-291800-
EASTERN PENNSYLVANIA

CITY           SKY/WX    TMP DP  RH WIND       PRES   REMARKS
PHILADELPHIA   CLOUDY    53  40  61 E9        30.08F
NORTH PHILA    CLOUDY    54  37  52 E12       30.09F
BLUE BELL*     CLOUDY    50  37  62 E7        30.07F
DOYLESTOWN     CLOUDY    50  33  52 VRB5      30.07F
QUAKERTOWN*    CLOUDY    50  37  62 E10       30.08F
PERKASIE*      CLOUDY    50  36  57 E5        30.08F
POTTSTOWN      CLOUDY    51  39  63 VRB6      30.08F
LANCASTER      CLOUDY    49  44  83 E9        30.05F
COATESVILLE    CLOUDY    48  46  93 SE10G17   30.06F
READING        LGT RAIN  50  41  71 E8        30.06F
ALLENTOWN      CLOUDY    54  33  45 SE10G20   30.07F
MOUNT POCONO   CLOUDY    46  29  51 E12       30.04F
HAZLETON       CLOUDY    48  34  57 SE9G18    30.05F
LEHIGHTON      CLOUDY    52  34  50 SE7       30.07F
WILKES BARRE   CLOUDY    54  35  48 E8        30.03F

$$
DEZALL-MDZ008-012-015-019-020-291800-
DELAWARE AND EASTERN MARYLAND

CITY           SKY/WX    TMP DP  RH WIND       PRES   REMARKS
WILMINGTON     CLOUDY    51  44  77 NE9       30.08F
DOVER          CLOUDY    51  51 100 NE7       30.05F FOG
GEORGETOWN     CLOUDY    51  48  89 NE12G17   30.04F
EASTON         CLOUDY   N/A N/A N/A E6        30.08F HAZE
ABERDEEN       CLOUDY    50  46  87 NE5       30.06F FOG
PATUXENT       CLOUDY    53  49  86 NE7       30.04S
OCEAN CITY     CLOUDY    52  47  83 NE12      30.03F
WALLOPS ISLAND CLOUDY    56  51  84 N9        30.01F
CAMBRIDGE      CLOUDY    52  50  93 NE6       30.03F
SALISBURY      CLOUDY    52  50  93 NE10      30.03F FOG

$$
PAZ001-021-NYZ056-072-MDZ011-DCZ001-291800-
OTHER NEARBY LOCATIONS

CITY           SKY/WX    TMP DP  RH WIND       PRES   REMARKS
HARRISBURG     CLOUDY    49  43  80 SE10      30.05F
STATE COLLEGE  CLOUDY    45  43  93 SE7       30.01F FOG
WILLIAMSPORT   CLOUDY    49  36  61 SE8G22    30.04F
BINGHAMTON     CLOUDY    50  37  61 SE10      30.02F
NEW YORK CITY  CLOUDY    57  21  24 E10G16    30.12F
BALTIMORE      CLOUDY    50  47  89 E7        30.04F
WASHINGTON DC  CLOUDY    52  48  86 E8        30.04F

$$



USA.gov is the U.S. government's official web portal to all federal, state and local government web resources and services.